Regional Weather Roundup
Issued by NWS

Home | Current Version | Previous Version | Text Only | Print | Product List | Glossary On
Versions: 1 2 3 4 5 6 7 8 9 10 11 12 13 14 15 16 17 18 19 20 21 22 23 24 25 26 27 28 29 30 31 32 33 34 35 36 37 38 39 40 41 42 43 44 45 46 47 48 49 50
000
ASUS45 KREV 011710
RWRNV
NEVADA REGIONAL WEATHER ROUNDUP
NATIONAL WEATHER SERVICE RENO NV
900 AM PST SUN FEB 01 2015

NOTE: "FAIR" INDICATES FEW OR NO CLOUDS BELOW 12,000 FEET WITH NO
SIGNIFICANT WEATHER AND/OR OBSTRUCTIONS TO VISIBILITY.

NVZ001-003-004-011800-
WESTERN NEVADA

CITY           SKY/WX    TMP DP  RH WIND       PRES   REMARKS
RENO           PTSUNNY   31  20  63 CALM      30.28R
CARSON CITY    FAIR      32  18  55 SE5       30.26S
SLIDE MTN        N/A     39  10  30 N10         N/A
FALLON         PTSUNNY   30  24  78 W3        30.26R
LOVELOCK       CLOUDY    25  22  88 CALM      30.26R
$$

NVZ002-CAZ072-073-011800-
NORTHERN AND CENTRAL SIERRA

CITY           SKY/WX    TMP DP  RH WIND       PRES   REMARKS
S. LAKE TAHOE  SUNNY     28  16  60 S3        30.28R
TRUCKEE        PTSUNNY   21  16  79 CALM      30.29R
SQUAW VLY 8000   N/A     45   1  16 CALM        N/A
BLUE CANYON    PTSUNNY   55   0  10 CALM      30.23R
MAMMOTH LAKES  FAIR      32   7  34 CALM      30.30R
BRIDGEPORT     FAIR      28  12  51 CALM      30.27S
$$

NVZ030-031-036-011800-
NORTHERN NEVADA

CITY           SKY/WX    TMP DP  RH WIND       PRES   REMARKS
ELKO           CLOUDY    30  25  81 CALM      30.24S
WINNEMUCCA     NOT AVBL
WENDOVER       SUNNY     36  27  69 NE6       30.24R
$$

NVZ035-037-011800-
CENTRAL NEVADA

CITY           SKY/WX    TMP DP  RH WIND       PRES   REMARKS
ELY            SUNNY     32  21  64 S10       30.24S
EUREKA           N/A     32  21  64 SW7       30.26S
$$

NVZ013-014-011800-
SOUTH CENTRAL NEVADA

CITY           SKY/WX    TMP DP  RH WIND       PRES   REMARKS
TONOPAH        SUNNY     39  14  36 NE5       30.26R
$$

NVZ017-020-022-011800-
SOUTHERN NEVADA

CITY           SKY/WX    TMP DP  RH WIND       PRES   REMARKS
LAS VEGAS      MOSUNNY   52  38  58 S7        30.17R
N. LAS VEGAS   SUNNY     53  32  44 NE5       30.20R
NELLIS AFB     SUNNY     48  39  69 CALM      30.21R
HENDERSON      SUNNY     53  37  54 CALM      30.22R
MERCURY        SUNNY     50  32  50 E3        30.20R
$$


USA.gov is the U.S. government's official web portal to all federal, state and local government web resources and services.